This is the latest recevied weather packets stored in our database for station/object N8TWM-13. If no packets are shown the sender has not sent any weather packets the latest 10 day(s).
| Time | Temp. | Humidity | Pressure | Rain* | Wind** | Luminosity | Snow |
|---|---|---|---|---|---|---|---|
| 1777502117 | 8.89° C | 93% | 1010.4 hPa | 0 mm | - | 13 W/m² | - |
| 1777501816 | 9.44° C | 93% | 1010.2 hPa | 0 mm | - | 32 W/m² | - |
| 1777501512 | 8.89° C | 93% | 1010.2 hPa | 0 mm | - | 48 W/m² | - |
| 1777501209 | 8.89° C | 93% | 1009.9 hPa | 0 mm | - | 18 W/m² | - |
| 1777500907 | 9.44° C | 93% | 1010.2 hPa | 0 mm | - | 50 W/m² | - |
| 1777500604 | 8.89° C | 93% | 1010 hPa | 0 mm | - | 54 W/m² | - |
| 1777500301 | 9.44° C | 93% | 1010 hPa | 0 mm | - | 69 W/m² | - |
| 1777499997 | 9.44° C | 93% | 1009.9 hPa | 0 mm | - | 65 W/m² | - |
| 1777499694 | 9.44° C | 93% | 1009.9 hPa | 0 mm | - | 62 W/m² | - |
| 1777499390 | 9.44° C | 93% | 1010 hPa | 0 mm | - | 80 W/m² | - |
| 1777499089 | 9.44° C | 93% | 1010 hPa | 0 mm | - | 54 W/m² | - |
| 1777498785 | 9.44° C | 93% | 1009.9 hPa | 0 mm | - | 73 W/m² | - |
| 1777498482 | 9.44° C | 93% | 1009.9 hPa | 0 mm | - | 106 W/m² | - |
| 1777498178 | 9.44° C | 93% | 1010 hPa | 0 mm | - | 65 W/m² | - |
| 1777497876 | 9.44° C | 93% | 1009.8 hPa | 0 mm | - | 70 W/m² | - |
| 1777497571 | 9.44° C | 92% | 1009.8 hPa | 0 mm | - | 67 W/m² | - |
| 1777497268 | 10° C | 92% | 1009.7 hPa | 0 mm | - | 72 W/m² | - |
| 1777496965 | 10° C | 92% | 1009.7 hPa | 0 mm | - | 67 W/m² | - |
| 1777496662 | 10° C | 92% | 1010 hPa | 0 mm | - | 60 W/m² | - |
| 1777496358 | 10° C | 92% | 1010.1 hPa | 0 mm | - | 48 W/m² | - |
| 1777496054 | 10° C | 92% | 1010 hPa | 0 mm | - | 80 W/m² | - |
| 1777495750 | 10° C | 93% | 1010.1 hPa | 0 mm | - | 67 W/m² | - |
| 1777495447 | 10° C | 93% | 1009.8 hPa | 0 mm | - | 81 W/m² | - |
| 1777495143 | 10° C | 93% | 1009.8 hPa | 0 mm | - | 61 W/m² | - |
| 1777494840 | 10° C | 93% | 1009.6 hPa | 0 mm | - | 89 W/m² | - |
* Rain latest hour (hover to see other rain measurements)
** Current wind speed in m/s (hover to see current wind gust speed)